User: anonymous   Login
Location: Caltech
(34.1382°N, 118.1253°W)
Time: 18:45:30
(UTC-08:00)
Language:

Cosmos 44 Rocket - Orbit

View from above orbital plane
View from above orbital plane
View from above satellite
View from above satellite

Ground track
Ground track

The orbit data is extracted from the following two-line orbital elements,

1 00877U 64053B   17016.52383671 -.00000085  00000-0  76648-5 0  9990
2 00877  65.0784  15.4687 0065856 185.1165 174.9269 14.59277203779384
Epoch (UTC): 16 January 2017 12:34:19
Eccentricity: 0.0065856
inclination: 65.0784°
perigee height: 649 km
apogee height: 742 km
right ascension of ascending node: 15.4687°
argument of perigee: 185.1165°
revolutions per day: 14.59277203
mean anomaly at epoch: 174.9269°
orbit number at epoch: 77938

The dashed part of the orbit path shows where the satellite is in the earth's shadow,  

DLR